TimeEST,TemperatureF,Dew PointF,Humidity,Sea Level PressureIn,VisibilityMPH,Wind Direction,Wind SpeedMPH,Gust SpeedMPH,PrecipitationIn,Events,Conditions,WindDirDegrees,DateUTC
12:15 AM,48.2,44.6,87,30.38,9.0,Calm,Calm,-,0.00,,Clear,0,2012-11-11 05:15:00
12:35 AM,48.2,44.6,87,30.38,8.0,Calm,Calm,-,0.00,,Clear,0,2012-11-11 05:35:00
12:55 AM,48.2,44.6,87,30.38,8.0,Calm,Calm,-,0.00,,Clear,0,2012-11-11 05:55:00
1:15 AM,48.2,44.6,87,30.38,8.0,Calm,Calm,-,0.00,,Clear,0,2012-11-11 06:15:00
1:35 AM,48.2,46.4,93,30.37,8.0,Calm,Calm,-,0.00,,Clear,0,2012-11-11 06:35:00
1:55 AM,50.0,46.4,87,30.37,9.0,Calm,Calm,-,0.00,,Clear,0,2012-11-11 06:55:00
2:15 AM,50.0,46.4,87,30.37,8.0,Calm,Calm,-,0.00,,Partly Cloudy,0,2012-11-11 07:15:00
2:55 AM,51.8,46.4,82,30.37,8.0,Calm,Calm,-,0.00,,Clear,0,2012-11-11 07:55:00
3:15 AM,51.8,48.2,88,30.37,9.0,Calm,Calm,-,0.00,,Clear,0,2012-11-11 08:15:00
3:35 AM,51.8,48.2,88,30.37,8.0,Calm,Calm,-,0.00,,Clear,0,2012-11-11 08:35:00
3:55 AM,51.8,48.2,88,30.37,9.0,Calm,Calm,-,0.00,,Clear,0,2012-11-11 08:55:00
4:15 AM,53.6,50.0,88,30.37,8.0,Calm,Calm,-,0.00,,Scattered Clouds,0,2012-11-11 09:15:00
4:35 AM,53.6,51.8,94,30.38,8.0,Calm,Calm,-,0.00,,Overcast,0,2012-11-11 09:35:00
4:55 AM,53.6,51.8,94,30.38,8.0,Calm,Calm,-,0.00,,Mostly Cloudy,0,2012-11-11 09:55:00
5:15 AM,53.6,51.8,94,30.38,8.0,Calm,Calm,-,0.00,,Partly Cloudy,0,2012-11-11 10:15:00
5:35 AM,53.6,51.8,94,30.38,8.0,Calm,Calm,-,0.00,,Clear,0,2012-11-11 10:35:00
5:55 AM,53.6,51.8,94,30.38,8.0,Calm,Calm,-,0.00,,Partly Cloudy,0,2012-11-11 10:55:00
6:15 AM,53.6,51.8,94,30.39,8.0,Calm,Calm,-,0.00,,Scattered Clouds,0,2012-11-11 11:15:00
6:35 AM,53.6,51.8,94,30.39,8.0,Calm,Calm,-,0.00,,Mostly Cloudy,0,2012-11-11 11:35:00
7:15 AM,57.2,55.4,94,30.41,8.0,Calm,Calm,-,0.00,,Mostly Cloudy,0,2012-11-11 12:15:00
7:35 AM,57.2,55.4,94,30.42,8.0,North,5.8,-,0.00,,Mostly Cloudy,360,2012-11-11 12:35:00
8:15 AM,60.8,55.4,82,30.43,8.0,NNE,3.5,-,0.00,,Overcast,30,2012-11-11 13:15:00
8:55 AM,60.8,57.2,88,30.44,8.0,NNE,4.6,-,0.00,,Overcast,20,2012-11-11 13:55:00
9:15 AM,62.6,57.2,82,30.44,8.0,NNE,6.9,-,0.00,,Overcast,20,2012-11-11 14:15:00
9:55 AM,66.2,59.0,78,30.44,9.0,Calm,Calm,-,0.00,,Mostly Cloudy,0,2012-11-11 14:55:00
10:15 AM,71.6,60.8,69,30.44,10.0,NE,6.9,-,0.00,,Mostly Cloudy,50,2012-11-11 15:15:00
10:35 AM,73.4,60.8,65,30.43,10.0,ENE,10.4,-,0.00,,Partly Cloudy,70,2012-11-11 15:35:00
10:55 AM,75.2,60.8,61,30.42,10.0,East,9.2,-,0.00,,Clear,80,2012-11-11 15:55:00
11:15 AM,75.2,60.8,61,30.42,9.0,East,11.5,-,0.00,,Clear,80,2012-11-11 16:15:00
11:35 AM,75.2,60.8,61,30.42,10.0,East,11.5,-,0.00,,Clear,80,2012-11-11 16:35:00
11:55 AM,75.2,60.8,61,30.41,10.0,ENE,11.5,-,0.00,,Clear,70,2012-11-11 16:55:00
12:15 PM,75.2,59.0,57,30.41,10.0,East,11.5,-,0.00,,Clear,80,2012-11-11 17:15:00
12:35 PM,75.2,59.0,57,30.40,10.0,East,11.5,-,0.00,,Clear,80,2012-11-11 17:35:00
1:15 PM,75.2,59.0,57,30.40,10.0,East,11.5,-,0.00,,Clear,90,2012-11-11 18:15:00
1:35 PM,73.4,59.0,61,30.39,10.0,East,10.4,-,0.00,,Clear,80,2012-11-11 18:35:00
1:55 PM,75.2,59.0,57,30.39,10.0,East,10.4,-,0.00,,Clear,90,2012-11-11 18:55:00
2:15 PM,75.2,59.0,57,30.39,10.0,East,9.2,-,0.00,,Scattered Clouds,80,2012-11-11 19:15:00
2:35 PM,73.4,60.8,65,30.38,10.0,East,13.8,-,0.00,,Scattered Clouds,80,2012-11-11 19:35:00
2:55 PM,73.4,60.8,65,30.38,10.0,East,12.7,-,0.00,,Scattered Clouds,90,2012-11-11 19:55:00
3:15 PM,73.4,60.8,65,30.38,10.0,East,11.5,-,0.00,,Clear,80,2012-11-11 20:15:00
3:35 PM,73.4,60.8,65,30.38,10.0,East,10.4,-,0.00,,Clear,80,2012-11-11 20:35:00
3:55 PM,71.6,60.8,69,30.38,10.0,East,9.2,-,0.00,,Clear,80,2012-11-11 20:55:00
4:15 PM,71.6,60.8,69,30.38,10.0,ENE,11.5,-,0.00,,Partly Cloudy,70,2012-11-11 21:15:00
4:55 PM,71.6,60.8,69,30.38,10.0,ENE,10.4,-,0.00,,Mostly Cloudy,60,2012-11-11 21:55:00
5:15 PM,68.0,60.8,78,30.38,9.0,NE,9.2,-,0.00,,Clear,50,2012-11-11 22:15:00
5:35 PM,66.2,60.8,83,30.38,10.0,NE,8.1,-,0.00,,Scattered Clouds,50,2012-11-11 22:35:00
5:55 PM,66.2,60.8,83,30.39,10.0,NE,9.2,-,0.00,,Mostly Cloudy,50,2012-11-11 22:55:00
6:15 PM,66.2,60.8,83,30.39,10.0,NE,8.1,-,0.00,,Mostly Cloudy,50,2012-11-11 23:15:00
6:35 PM,64.4,60.8,88,30.39,10.0,NE,8.1,-,0.00,,Clear,50,2012-11-11 23:35:00
6:55 PM,64.4,60.8,88,30.39,10.0,NE,6.9,-,0.00,,Clear,50,2012-11-11 23:55:00
7:15 PM,64.4,60.8,88,30.39,10.0,NE,5.8,-,0.00,,Clear,50,2012-11-12 00:15:00
7:35 PM,62.6,60.8,94,30.39,8.0,NE,5.8,-,0.00,,Clear,50,2012-11-12 00:35:00
7:55 PM,62.6,60.8,94,30.38,8.0,NE,4.6,-,0.00,,Clear,50,2012-11-12 00:55:00
8:15 PM,62.6,60.8,94,30.38,8.0,NE,3.5,-,0.00,,Clear,40,2012-11-12 01:15:00
8:35 PM,62.6,59.0,88,30.38,7.0,Calm,Calm,-,0.00,,Clear,0,2012-11-12 01:35:00
8:55 PM,62.6,60.8,94,30.38,7.0,Calm,Calm,-,0.00,,Clear,0,2012-11-12 01:55:00
9:15 PM,60.8,59.0,94,30.38,5.0,Calm,Calm,-,0.00,,Clear,0,2012-11-12 02:15:00
9:35 PM,60.8,59.0,94,30.38,6.0,Calm,Calm,-,0.00,,Partly Cloudy,0,2012-11-12 02:35:00
9:55 PM,62.6,60.8,94,30.38,7.0,Calm,Calm,-,0.00,,Mostly Cloudy,0,2012-11-12 02:55:00
10:15 PM,62.6,60.8,94,30.38,7.0,NNE,5.8,-,0.00,,Overcast,30,2012-11-12 03:15:00
11:15 PM,60.8,59.0,94,30.36,7.0,Calm,Calm,-,0.00,,Clear,0,2012-11-12 04:15:00
11:35 PM,60.8,59.0,94,30.36,7.0,Calm,Calm,-,0.00,,Clear,0,2012-11-12 04:35:00
11:55 PM,60.8,59.0,94,30.36,6.0,Calm,Calm,-,0.00,,Mostly Cloudy,0,2012-11-12 04:55:00